ECMWFFLT2_500_rhum_015.txt.gz
RH
11 10 10 9 8 7 6 6 5 5 4 4 4 3 3 3 3 3 2 2 2 3 3 2 2 2 3 3 3 4 5 5 5 6 6 6 7 7 7 7 7 7 7 7 7 7 7 7 6 6 6 6
7 7 7 7 6 6 5 5 5 5 4 4 4 4 4 4 4 3 3 3 3 3 3 3 3 3 3 3 3 4 4 5 5 5 6 7 7 7 7 7 7 7 7 7 7 7 7 7 7 7 7 7
7 7 7 6 6 6 5 5 4 4 4 4 4 4 4 4 4 4 4 3 3 3 3 3 3 3 3 3 3 3 4 4 5 5 5 6 6 7 7 7 7 7 7 7 7 7 7 7 7 7 7 7
8 8 8 8 7 7 7 6 5 4 4 4 4 4 4 4 4 4 4 4 3 3 3 3 3 3 3 3 3 3 3 4 4 4 5 6 6 7 7 7 7 7 7 7 7 7 7 7 7 7 7 7
6 6 7 7 7 8 8 8 7 7 6 4 4 4 4 4 4 4 4 4 4 3 3 3 3 3 3 3 3 3 3 3 4 4 4 5 6 6 7 7 7 7 7 7 7 7 7 7 7 7 7 7
5 5 5 5 5 6 6 7 7 8 8 7 6 5 4 4 4 4 4 4 4 4 3 3 3 3 3 3 3 3 3 3 3 4 4 4 4 5 6 6 6 6 6 6 7 7 7 7 7 7 7 7
5 5 4 4 4 4 4 5 5 6 7 7 8 7 6 5 4 4 4 4 4 4 4 3 3 3 3 3 3 3 3 4 3 3 3 3 4 4 5 5 5 5 6 6 6 6 6 6 6 6 7 7
6 5 5 5 5 4 4 4 4 4 4 5 6 6 7 7 6 5 5 4 4 4 4 4 3 3 3 3 3 4 4 4 4 4 4 3 3 3 4 4 3 4 5 5 5 5 6 6 6 6 6 6
6 6 6 5 5 5 5 4 4 4 4 4 4 5 5 6 6 7 6 6 5 5 4 4 3 3 3 3 3 3 4 4 4 4 4 4 4 3 3 3 3 3 3 4 3 4 5 5 5 5 5 5
8 7 7 6 6 6 5 5 5 4 4 4 4 4 4 4 5 5 6 6 6 6 6 5 4 4 4 4 3 3 3 3 4 4 4 4 4 4 4 3 3 3 3 3 3 3 4 4 4 4 4 4
9 8 8 8 7 7 7 6 6 5 5 4 4 4 5 4 4 4 4 5 5 6 6 6 6 6 5 5 4 3 3 4 3 3 3 4 4 4 4 4 4 4 4 4 3 4 4 4 4 4 4 4
8 8 8 8 8 8 7 7 7 7 6 5 5 5 5 5 4 4 4 4 4 4 5 5 6 7 7 6 6 4 3 4 4 4 3 3 4 4 4 5 5 4 4 4 4 4 4 4 4 4 4 4
10 9 8 8 8 8 7 7 7 7 7 7 7 6 6 6 5 5 4 4 4 4 4 4 5 5 6 6 7 7 5 5 4 4 4 4 3 3 4 4 4 5 4 4 5 5 5 5 5 5 5 5
13 12 11 10 9 8 8 7 7 7 7 7 7 7 7 6 6 6 5 5 5 4 4 4 4 4 5 5 5 6 6 6 7 6 5 4 4 4 4 5 5 5 4 4 5 5 5 5 5 5 5 5
15 15 14 13 12 11 10 9 8 7 7 7 7 7 7 6 6 6 6 6 6 6 5 5 5 5 5 5 5 5 6 6 6 7 7 6 5 5 4 5 5 5 4 5 5 5 5 6 6 5 5 5
16 15 15 14 14 13 12 11 10 9 9 8 8 7 7 7 7 7 6 6 6 6 6 6 5 6 6 6 5 4 4 5 5 5 6 7 7 6 5 5 5 6 5 5 5 6 6 6 6 6 6 6
17 17 16 16 15 14 14 13 13 12 11 10 10 9 8 8 8 8 7 6 7 6 6 6 5 6 5 5 7 7 6 5 5 5 4 5 6 7 7 7 6 6 6 6 6 6 7 7 7 8 7 7
19 19 18 17 17 16 15 15 14 14 13 13 12 12 11 10 10 9 9 8 7 7 7 6 6 7 8 7 4 4 6 6 5 5 5 4 4 5 6 7 8 7 7 7 7 7 8 8 9 9 9 9
24 23 21 21 19 18 17 16 16 16 15 14 14 13 13 12 12 11 10 10 9 9 8 7 7 8 18 27 22 11 6 6 7 6 5 6 4 5 5 5 6 7 8 8 8 8 10 10 11 11 11 11
28 27 26 24 23 22 21 19 18 18 18 17 16 16 15 14 13 13 12 12 11 10 9 9 9 8 18 37 46 40 21 5 6 6 5 6 6 6 5 4 5 6 8 9 10 11 11 12 12 13 13 14
31 31 30 28 27 26 25 24 22 21 20 19 19 19 18 16 15 15 14 13 12 12 11 10 10 9 11 20 30 35 24 7 6 7 5 6 6 6 6 5 5 4 6 8 11 13 14 17 17 16 17 17
30 31 31 31 31 29 28 27 26 25 23 22 21 21 21 20 18 17 16 16 15 13 13 12 11 10 10 12 13 15 16 11 9 7 6 7 6 6 7 6 7 6 6 7 11 14 16 19 20 19 19 19
32 31 30 30 30 31 30 30 28 27 27 25 25 23 22 22 20 20 19 18 17 16 15 14 13 12 11 12 11 10 12 13 12 9 7 6 6 7 6 6 7 7 7 7 9 13 16 17 19 21 20 19
36 34 32 31 29 29 29 29 30 29 29 28 27 26 25 24 22 21 21 20 19 18 17 16 15 14 13 12 12 12 12 12 13 13 10 7 7 7 7 7 7 8 8 8 9 11 13 15 16 17 19 18
37 36 35 33 32 31 29 29 29 30 31 30 29 28 27 27 26 24 22 21 21 19 18 18 17 15 15 14 13 13 15 15 15 16 15 10 8 7 7 7 7 8 8 8 9 10 10 12 14 15 18 21
33 33 32 32 32 31 30 29 29 29 29 30 31 30 29 28 28 28 26 24 22 21 20 19 18 17 16 16 15 14 15 16 18 21 21 17 13 9 8 8 7 7 9 8 7 8 11 14 15 16 17 19
23 23 23 24 26 26 26 26 28 28 27 27 28 29 30 30 29 29 29 28 26 24 22 20 19 18 18 17 18 20 21 22 22 24 27 27 23 15 9 9 9 7 7 9 9 9 12 13 13 13 13 12
14 14 14 14 16 17 19 20 22 24 25 26 26 27 28 30 31 29 28 29 28 27 26 24 22 20 19 18 18 22 29 36 39 37 34 34 34 27 17 10 8 9 8 8 10 10 9 9 11 12 8 8
8 8 8 9 10 10 11 13 15 17 19 22 24 26 27 29 32 32 30 29 28 28 28 28 26 23 21 20 19 19 25 36 54 66 65 58 54 45 31 18 11 9 11 11 10 10 11 10 11 10 10 19
8 9 9 9 10 9 9 10 11 12 14 15 18 21 24 27 31 35 35 32 29 28 28 28 28 28 25 22 20 19 20 25 44 76 92 88 84 77 61 45 31 16 11 14 13 12 13 13 12 12 17 29
13 14 14 14 14 14 13 12 12 13 13 14 14 15 18 22 26 32 38 39 36 32 30 29 28 29 29 27 24 21 20 21 31 64 95 102 99 98 92 81 62 36 20 17 17 16 17 20 20 17 17 22

ECMWFFLT2_500_rhum_018.txt.gz
RH
8 9 9 10 10 10 11 11 12 12 12 12 12 12 11 11 10 9 8 6 6 6 6 5 4 4 3 3 2 2 2 2 2 2 1 1 2 2 2 2 2 2 2 2 2 2 2 2 2 2 2 2
7 7 7 7 7 8 8 8 8 8 8 9 9 9 9 9 8 8 7 6 5 5 5 4 4 4 3 3 2 2 2 2 2 2 1 2 2 2 2 2 2 3 3 3 2 3 2 2 2 2 2 2
8 8 8 8 8 8 7 7 7 7 7 7 7 7 6 6 6 6 5 5 5 5 5 5 4 4 3 3 3 3 2 2 2 2 2 2 2 2 2 3 3 3 3 4 4 3 3 3 3 3 3 3
6 6 6 7 7 7 7 7 7 7 8 7 7 7 7 6 6 5 5 5 5 4 4 4 5 4 4 3 3 3 3 3 2 2 2 2 2 2 3 3 4 4 4 4 5 5 5 5 5 4 4 4
5 5 5 5 5 5 5 6 6 6 6 7 7 7 7 8 7 7 6 5 4 4 4 4 5 5 4 4 3 3 3 3 3 2 2 2 2 2 3 3 4 4 4 4 5 5 5 5 5 5 5 5
6 6 5 5 5 5 5 5 5 5 5 5 5 5 6 6 7 8 8 7 6 5 4 4 4 5 5 4 4 4 3 3 3 3 3 2 2 2 2 3 3 4 4 4 5 5 6 6 6 6 6 6
7 7 7 7 6 6 6 6 5 5 5 5 4 4 4 4 5 5 7 8 8 7 6 5 4 4 5 5 5 4 4 4 4 3 3 3 2 2 2 2 3 3 4 4 4 5 6 6 6 6 7 6
9 8 8 8 7 7 7 7 7 6 6 5 5 5 5 4 4 4 5 5 7 7 8 7 6 5 4 4 5 5 4 4 4 4 4 3 3 3 2 2 2 2 3 3 4 5 5 6 6 7 7 7
10 10 9 9 9 8 8 8 7 7 7 7 6 5 5 5 4 4 4 4 5 5 7 7 7 7 6 5 4 4 5 4 4 4 4 4 3 3 3 3 2 2 2 2 3 3 5 6 6 7 7 7
11 11 10 10 10 9 9 9 8 8 8 7 7 6 6 6 5 5 5 4 4 4 4 5 6 7 7 7 6 5 4 4 4 4 4 4 4 3 3 4 3 3 2 2 2 3 3 5 6 6 6 6
14 13 12 11 11 10 10 9 9 9 9 8 8 7 7 6 6 6 5 5 4 4 4 4 5 5 6 7 7 7 6 5 4 4 4 4 4 4 4 4 4 4 4 3 3 2 3 3 5 5 5 6
17 16 16 15 14 13 12 11 10 9 9 9 9 9 8 8 7 7 6 5 5 4 4 4 4 4 5 5 6 7 7 6 6 5 4 4 4 4 4 4 5 5 6 6 4 3 3 3 3 4 4 5
19 19 19 19 18 18 17 15 14 12 11 9 9 9 8 8 8 8 7 7 6 5 5 4 4 5 5 5 5 5 6 7 7 7 6 5 4 4 4 4 5 5 6 7 6 5 4 3 3 3 3 3
20 20 20 20 20 20 19 19 18 17 15 13 11 10 9 9 8 8 8 8 8 7 6 6 5 4 4 5 5 5 5 5 6 7 7 6 5 4 4 4 4 5 5 7 7 6 5 4 3 3 3 3
19 19 20 20 20 20 20 19 19 19 18 17 16 14 12 10 9 8 8 8 8 8 8 7 6 5 5 5 5 5 5 5 5 5 6 7 7 6 5 5 4 4 5 5 6 6 6 5 5 4 4 4
23 22 21 21 20 20 20 20 20 19 18 18 18 17 16 14 12 10 9 8 8 8 8 8 7 7 6 6 5 5 6 6 6 6 5 5 6 6 6 6 5 4 4 5 5 6 7 7 5 5 5 5
29 28 27 25 24 22 21 21 21 21 20 19 18 18 17 16 15 13 12 10 9 8 8 8 8 7 7 7 6 6 7 7 7 9 8 5 5 5 6 6 6 6 6 5 6 7 8 8 7 6 6 6
35 34 34 33 31 28 26 24 23 22 22 21 20 19 18 17 16 16 15 13 11 10 9 8 8 8 7 7 7 7 7 7 9 12 9 6 6 6 5 5 6 6 7 8 7 7 8 9 9 8 7 7
36 36 36 36 36 35 33 31 29 27 25 24 23 22 21 19 18 17 16 15 14 13 11 10 9 8 8 8 7 7 7 7 8 10 9 6 6 6 6 6 6 6 6 7 8 8 9 10 9 9 9 8
32 32 32 33 34 36 36 36 35 33 31 30 28 27 25 24 22 21 18 17 15 15 14 13 11 10 9 9 8 8 7 7 7 8 11 13 9 8 8 6 5 6 6 6 7 8 9 11 11 10 10 10
24 25 25 26 27 29 31 33 34 35 35 35 33 31 30 28 27 26 24 21 18 16 16 15 15 14 12 11 10 9 8 8 8 10 15 18 13 11 12 11 8 6 6 6 6 7 6 8 12 12 12 13
20 21 21 21 22 23 24 26 28 30 32 34 35 35 33 32 30 29 29 27 24 20 17 16 17 17 16 14 12 11 11 9 12 20 26 27 19 12 13 16 13 9 9 9 7 6 7 7 8 11 14 15
21 21 21 21 20 20 20 20 21 23 26 28 31 33 34 34 33 31 30 29 29 27 23 20 18 18 18 18 16 14 13 11 13 21 29 31 27 21 21 21 16 12 11 15 15 10 8 7 7 7 11 14
27 26 25 24 22 21 20 19 19 19 20 22 25 28 30 33 35 35 33 31 30 29 28 26 22 19 19 19 19 17 15 14 13 16 20 26 29 30 35 32 26 27 26 25 25 20 12 7 7 6 7 8
35 32 30 27 25 24 22 21 21 19 19 19 20 23 25 28 31 34 36 35 33 30 29 29 28 25 22 20 20 19 18 17 15 15 15 19 27 35 42 38 29 33 48 50 34 21 15 9 7 7 7 7
37 33 29 26 24 23 23 22 21 21 19 18 18 18 20 23 26 28 32 34 35 34 32 30 29 28 27 24 22 21 21 21 19 17 15 16 22 31 40 44 37 34 52 60 38 17 13 17 17 11 9 8
30 27 24 22 20 19 18 18 17 18 17 17 17 16 17 18 20 22 25 29 32 34 35 33 31 29 28 28 26 24 23 24 23 21 18 17 19 25 31 39 43 43 47 51 46 31 17 17 24 16 9 9
23 21 20 18 18 16 15 15 14 14 14 14 14 14 14 14 15 16 18 22 25 29 32 34 34 33 30 28 28 27 25 25 26 25 23 20 18 21 26 30 35 38 38 37 43 42 23 12 17 16 8 7
20 19 17 16 15 13 13 12 11 11 11 11 11 11 12 12 12 13 14 15 17 21 26 29 32 34 34 32 29 28 27 26 26 26 26 24 21 19 21 26 31 36 37 32 29 28 23 16 12 10 9 9
17 15 13 11 10 9 8 7 7 7 6 7 7 7 8 9 9 10 11 12 12 14 18 22 27 30 33 35 34 31 28 27 26 27 26 25 23 21 20 22 27 35 43 48 42 29 21 17 14 12 13 17
12 10 9 8 8 7 7 6 6 6 6 5 5 5 5 6 6 7 8 9 10 11 13 16 20 25 28 31 34 35 33 29 27 27 28 27 24 23 22 21 21 26 37 55 65 54 33 19 16 14 13 16

ECMWFFLT2_500_rhum_024.txt.gz
RH
8 9 9 9 10 10 11 11 12 12 13 14 15 17 19 20 19 18 18 18 19 19 19 19 19 18 18 18 18 17 17 16 16 16 15 14 14 13 13 12 12 11 9 8 7 8 8 8 8 7 6 5
8 8 8 8 8 8 8 9 9 9 9 10 10 11 12 14 16 16 16 15 16 17 17 18 18 18 19 18 18 18 18 18 18 18 17 17 16 14 13 12 12 12 10 8 7 7 7 7 6 6 5 5
7 7 7 7 7 7 8 7 8 8 8 8 8 9 9 9 10 12 12 12 13 13 13 14 15 16 17 18 18 18 18 18 18 18 19 18 18 17 15 14 13 12 11 9 8 7 7 7 6 5 5 4
5 5 5 5 6 6 6 6 7 7 7 8 8 8 8 8 8 9 9 9 10 10 10 10 11 11 13 14 14 15 16 17 17 17 18 18 18 18 17 16 14 14 12 10 9 8 7 7 6 5 4 4
5 5 5 5 5 5 5 5 5 5 6 6 6 7 7 7 7 8 8 8 8 8 8 8 9 9 9 10 10 11 12 13 13 14 16 17 17 17 17 17 16 15 15 12 9 8 7 7 7 5 4 4
8 8 8 8 7 7 6 6 6 5 5 5 5 5 5 6 6 6 6 7 7 7 8 8 8 8 8 8 8 8 9 9 10 10 12 13 15 16 16 16 16 16 16 14 10 8 7 6 7 6 5 4
13 13 12 11 11 10 9 9 8 8 7 7 6 6 5 5 5 5 5 5 6 6 6 7 7 7 7 7 7 8 8 8 8 8 8 10 11 13 14 14 15 14 15 15 10 8 7 6 7 6 5 5
16 15 15 15 14 13 13 12 11 10 10 9 9 8 7 6 6 5 5 5 5 5 5 6 6 6 6 7 7 7 7 7 8 8 8 8 8 10 11 12 12 13 14 14 10 7 7 6 6 6 5 4
17 16 16 15 15 14 14 13 13 12 11 11 11 10 9 9 8 7 7 6 6 6 5 6 5 6 6 6 6 6 6 7 7 7 7 8 8 8 8 9 9 10 12 12 9 7 7 6 6 5 4 4
17 17 16 16 15 15 15 14 14 13 12 12 11 11 11 10 10 9 9 8 8 7 6 6 6 6 6 6 6 6 6 6 6 6 7 7 7 8 8 8 8 8 9 10 8 6 7 6 6 5 4 4
18 17 17 17 17 16 16 16 15 15 14 14 13 12 12 11 11 10 10 9 9 8 7 7 7 6 6 6 6 6 6 6 6 5 6 6 6 7 7 8 8 7 7 7 6 6 7 6 6 5 5 4
20 19 19 18 18 18 18 18 17 17 17 16 15 15 14 13 12 12 11 11 10 9 9 8 8 7 7 6 6 6 7 6 6 6 6 5 6 6 6 7 7 8 7 6 5 5 6 6 6 6 5 5
24 23 23 22 22 21 20 20 20 19 19 19 18 17 17 16 15 14 13 12 11 11 10 10 9 8 8 7 7 7 7 7 7 7 6 6 6 5 5 6 6 7 7 8 7 5 6 6 6 6 6 5
30 29 29 28 27 26 26 25 24 23 22 22 21 20 19 19 18 17 16 15 14 13 12 11 10 10 9 9 8 8 7 7 7 7 7 7 6 6 6 5 5 6 6 7 8 7 6 6 6 6 6 6
37 35 34 33 33 32 31 30 29 28 27 26 25 24 23 22 21 20 19 18 17 16 15 13 12 11 11 10 10 9 9 8 7 7 7 7 7 7 6 6 6 5 5 6 7 8 8 7 6 6 6 6
41 40 39 38 38 37 36 36 34 33 32 31 30 28 27 25 24 23 22 21 20 19 18 17 15 14 13 12 11 10 10 9 9 8 8 8 7 7 7 6 6 6 5 5 5 6 7 8 7 6 6 6
48 46 45 44 43 41 40 39 38 37 36 35 34 33 31 30 28 27 26 24 23 21 20 19 18 17 16 15 13 12 11 10 10 10 9 9 8 8 8 7 6 6 6 5 5 5 5 7 8 8 7 6
59 58 56 53 51 49 47 44 42 40 38 37 36 35 34 33 32 30 29 28 26 25 23 22 21 20 18 17 16 15 14 13 12 11 10 10 9 9 9 8 7 7 6 6 6 5 5 5 6 8 8 7
71 71 68 65 62 58 56 53 51 48 44 41 39 37 35 34 33 32 31 30 29 28 26 25 24 23 21 20 19 18 17 16 15 13 12 11 10 10 10 9 9 8 7 7 7 6 6 5 5 6 7 8
79 79 78 76 72 69 66 62 60 56 52 49 46 43 39 37 35 33 32 31 30 29 28 27 26 25 24 23 22 20 19 18 18 17 16 14 13 11 10 10 10 10 9 8 7 7 7 7 6 5 6 6
84 84 84 82 80 77 75 71 67 63 59 57 54 51 47 44 41 38 36 33 31 30 28 28 27 27 26 25 24 23 22 21 20 19 19 18 17 15 13 12 11 10 10 10 9 8 8 8 8 6 5 5
89 89 89 87 86 83 81 78 74 70 66 63 61 59 55 52 49 46 44 42 39 36 33 31 30 29 28 27 26 25 24 23 22 21 20 20 19 18 17 16 14 12 11 11 10 10 9 9 9 8 7 6
92 93 93 91 89 87 84 82 79 75 72 69 67 64 62 58 55 52 49 48 48 46 43 40 36 34 32 31 29 28 26 25 24 23 22 21 21 20 19 18 18 16 14 13 11 10 9 9 10 10 9 8
90 90 90 88 86 84 82 80 78 76 74 71 69 66 64 61 58 55 53 51 50 49 49 48 46 43 40 37 35 33 31 29 27 25 24 22 22 22 21 20 19 19 18 16 14 12 10 10 10 10 10 11
84 84 83 81 80 78 76 74 72 71 69 68 66 66 65 63 60 58 55 53 50 48 48 48 49 49 48 45 42 39 36 34 31 29 28 26 24 22 23 22 21 21 20 19 18 16 13 11 10 10 10 11
80 78 76 74 72 70 69 67 66 64 62 61 60 59 59 59 59 57 55 53 50 49 47 45 45 46 47 48 47 45 42 39 36 33 31 30 28 26 24 23 23 22 21 21 20 19 18 16 13 11 11 11
77 75 73 70 67 64 62 60 59 57 55 54 52 51 51 51 50 50 49 48 47 46 45 44 43 42 43 44 45 46 46 44 41 38 35 33 32 31 29 26 25 24 23 22 21 21 21 19 17 14 13 12
68 67 65 64 62 59 57 55 53 52 50 48 46 45 44 43 42 41 41 40 40 40 39 39 39 39 39 39 40 41 43 44 43 42 40 37 34 32 32 31 29 28 26 24 23 22 21 20 20 18 16 14
50 51 51 51 51 50 49 47 46 45 43 42 40 38 38 37 36 34 34 33 33 33 33 33 33 33 34 35 35 36 36 37 39 40 41 41 38 35 32 32 33 32 31 29 27 25 23 21 21 19 18 17
33 34 36 37 38 38 38 37 37 36 35 34 33 32 32 31 29 28 28 27 27 27 26 26 27 27 27 28 29 30 31 32 33 34 35 37 39 38 35 32 32 33 34 34 32 30 27 24 22 21 19 19
17 17 20 22 23 24 25 26 27 27 27 27 27 26 26 26 25 24 23 22 22 22 21 21 21 21 21 22 22 23 25 26 27 29 30 32 33 35 36 35 32 31 32 34 36 35 32 29 26 23 21 20

ECMWFFLT2_500_rhum_027.txt.gz
RH
10 11 11 11 11 12 12 12 12 12 13 14 15 17 20 24 27 28 28 30 33 35 35 35 35 34 32 29 26 24 22 21 20 20 21 21 21 21 21 21 22 22 22 19 16 16 17 16 16 15 14 13
9 9 9 9 9 9 9 10 10 10 11 11 12 13 14 15 17 19 20 22 25 28 30 32 32 32 32 31 29 28 26 24 22 21 20 20 20 20 20 20 20 20 20 18 16 15 16 17 16 15 14 13
8 8 8 8 8 8 8 8 8 8 8 9 9 10 10 11 12 13 14 15 17 20 23 25 27 28 29 28 28 28 27 25 24 23 22 21 20 19 20 19 19 19 19 17 15 14 14 15 16 15 14 12
6 7 7 7 8 8 8 8 8 8 8 8 8 8 8 9 9 9 10 11 12 13 16 18 20 22 24 24 25 25 25 24 23 22 22 22 22 20 20 20 20 19 19 18 16 14 13 13 14 14 13 13
8 7 6 6 6 7 6 7 7 7 7 7 7 7 7 7 8 8 8 9 9 10 11 13 14 16 18 19 20 21 21 22 21 20 20 21 22 22 20 20 20 20 20 19 17 16 15 14 13 13 12 12
12 11 9 8 7 7 7 7 7 7 6 6 6 6 6 6 7 7 7 7 8 8 8 9 10 11 13 14 15 17 17 17 18 19 19 19 20 22 21 21 21 21 21 20 19 18 17 15 15 14 12 12
17 16 15 13 12 11 11 11 10 10 9 8 8 7 7 6 6 6 6 6 6 7 7 8 8 8 9 10 11 12 13 13 14 16 17 16 17 19 20 20 21 21 21 21 21 20 18 16 16 16 14 13
19 19 19 18 17 16 15 15 14 14 13 13 12 11 10 9 8 7 6 6 5 6 6 6 7 7 8 8 9 9 10 11 11 12 13 13 13 15 17 17 19 20 21 21 21 20 19 16 16 17 17 15
20 20 20 19 19 18 18 17 17 17 16 16 15 14 14 13 12 11 9 8 7 6 6 6 6 6 6 7 7 7 8 8 9 10 10 10 10 11 13 14 15 17 18 20 20 20 19 16 15 17 18 18
21 20 20 20 19 18 18 18 17 17 17 16 16 16 15 15 14 14 13 12 10 9 8 7 6 6 6 5 6 6 6 7 7 8 8 9 9 9 10 11 12 14 15 16 17 17 17 14 13 14 16 18
22 21 21 20 20 19 18 18 17 16 16 16 16 16 15 15 15 14 14 14 13 12 11 10 9 8 7 7 6 6 6 6 6 6 7 7 8 8 8 9 10 11 12 13 13 14 14 13 11 11 13 16
24 23 23 22 21 20 20 19 19 18 17 17 16 16 15 15 15 14 14 14 13 13 13 12 11 10 10 9 8 7 7 6 6 6 6 6 7 7 7 8 8 8 9 9 10 10 11 11 10 9 10 12
27 26 25 25 24 23 22 22 21 20 20 19 19 18 17 17 16 15 14 14 14 14 13 13 13 12 11 11 10 10 9 8 7 6 6 6 6 6 6 7 7 7 8 8 8 8 9 9 9 8 8 9
34 32 31 30 29 27 26 25 24 24 23 22 21 21 20 19 19 18 17 16 15 14 14 14 13 13 13 12 11 11 10 10 9 8 7 6 6 6 6 6 6 7 7 7 7 7 8 8 8 8 8 7
43 40 38 36 35 34 32 31 30 28 27 26 25 24 23 22 21 21 20 19 18 17 16 15 14 14 14 13 13 12 11 11 10 10 9 8 7 7 6 6 6 6 6 7 7 7 7 7 7 8 8 8
49 46 44 42 40 39 38 37 36 34 32 31 29 28 27 25 24 23 22 21 20 19 18 17 16 16 15 15 14 13 13 12 12 11 10 10 9 9 8 7 6 5 5 5 6 6 6 7 7 7 7 8
52 50 48 46 45 43 43 42 40 39 38 36 35 33 32 30 28 27 25 24 23 22 21 19 18 18 17 16 16 15 15 14 13 13 12 11 10 10 9 8 7 6 6 5 5 5 6 6 6 6 6 7
59 56 53 51 50 48 46 46 44 43 42 41 39 38 37 35 33 32 30 28 26 25 23 22 21 20 19 18 17 16 16 16 15 14 14 13 12 11 11 10 9 8 7 6 6 5 5 5 6 6 6 6
69 65 61 58 55 53 51 50 48 47 46 44 43 42 41 39 38 37 35 34 32 30 28 26 24 23 21 20 19 18 17 17 17 16 16 15 14 14 13 12 11 10 9 8 7 6 6 6 5 6 6 6
84 78 72 67 64 61 59 56 55 52 50 49 47 46 44 43 42 41 40 38 37 36 34 32 30 28 26 24 22 20 19 18 18 17 17 17 16 15 14 14 13 12 11 10 9 8 7 6 6 6 6 6
98 95 90 85 80 75 71 67 64 62 59 57 55 53 50 48 47 45 43 42 41 40 39 38 36 34 32 30 28 25 23 21 20 19 18 18 17 17 16 15 15 14 13 12 11 10 9 8 7 6 6 6
100 101 100 99 97 94 90 86 81 76 72 69 65 63 60 57 55 52 50 48 46 44 42 41 40 39 38 36 34 32 30 27 25 23 21 20 19 18 18 18 17 15 15 14 13 13 11 10 9 8 7 7
99 100 100 100 101 101 101 99 97 94 90 86 81 76 71 68 64 61 59 56 54 51 49 46 44 42 41 39 38 37 35 33 31 29 26 24 22 21 20 19 19 18 16 15 14 14 13 13 11 10 9 8
100 100 100 100 100 100 100 101 101 101 100 99 97 94 89 83 78 74 71 68 64 61 58 54 51 48 46 43 41 39 37 36 34 33 31 30 27 25 24 22 21 20 19 17 16 15 14 14 14 12 11 10
98 99 100 100 100 100 100 100 100 100 100 100 101 102 101 100 96 91 88 85 80 74 69 64 60 57 53 50 47 44 41 39 37 35 34 32 31 30 28 26 25 23 22 21 19 18 17 16 15 15 14 12
86 89 92 93 95 97 98 99 100 101 100 100 100 100 102 104 104 100 99 99 96 90 84 78 72 65 60 57 55 52 49 46 43 40 37 35 33 31 30 29 28 27 25 24 23 22 20 19 17 17 16 15
74 76 78 79 81 82 85 88 92 96 98 99 100 101 101 102 103 101 100 102 102 99 96 93 86 78 70 64 60 58 56 54 51 48 44 41 38 35 32 30 29 28 27 26 25 25 24 22 21 19 18 17
68 70 71 71 70 69 69 71 75 80 84 89 92 95 96 97 98 99 99 100 100 99 97 96 93 88 80 73 67 63 61 59 57 56 53 50 46 43 39 35 32 30 29 27 26 25 25 25 24 22 21 19
65 64 64 64 63 60 58 58 60 64 67 70 74 77 81 83 85 87 90 93 95 94 93 91 90 87 84 80 76 72 67 63 61 60 59 57 54 50 47 44 40 36 33 31 28 26 24 24 24 24 23 22
73 66 60 56 54 51 48 48 50 51 51 52 53 56 59 62 65 68 71 75 79 82 84 84 83 82 81 81 79 77 73 68 64 62 61 60 59 56 53 50 48 45 42 39 36 32 28 25 25 24 23 23
73 66 57 51 46 41 38 37 38 38 38 38 39 39 40 41 44 47 50 54 58 61 66 70 72 73 74 75 75 74 72 70 67 65 62 61 59 58 57 55 52 50 49 47 44 41 36 32 29 27 25 24

ECMWFFLT2_500_rhum_033.txt.gz
RH
17 19 19 19 18 17 17 16 17 18 20 21 24 28 31 33 35 39 42 45 49 55 61 66 72 78 82 85 85 83 81 78 74 69 64 59 54 51 47 43 40 40 43 45 44 42 43 45 46 45 42 41
13 14 15 17 17 18 19 18 18 18 17 17 18 20 22 24 25 27 28 30 33 36 42 48 52 60 69 75 80 82 81 79 77 73 69 65 60 55 50 45 40 37 37 38 38 36 35 37 41 44 44 42
14 13 12 13 13 14 15 16 18 18 19 19 19 19 19 19 19 20 21 24 27 31 40 43 39 40 49 58 65 71 75 77 77 75 73 70 66 61 55 49 43 38 37 36 34 33 31 30 32 36 38 38
17 16 14 13 12 12 12 13 14 14 15 16 17 17 17 17 16 15 16 19 21 25 33 36 31 27 28 36 45 51 57 64 69 72 72 71 68 66 62 55 49 43 39 38 36 32 30 29 29 29 30 32
21 19 18 16 15 14 13 13 13 12 11 11 12 13 14 15 14 14 13 13 14 16 20 22 25 25 21 20 25 32 37 44 51 58 62 63 64 64 63 60 55 49 43 40 38 34 30 27 27 27 27 28
25 23 22 21 19 17 16 15 15 14 12 10 10 10 11 12 13 13 12 12 11 11 13 15 19 25 30 28 22 21 23 27 33 37 43 47 51 55 57 58 56 53 48 43 41 37 33 29 25 26 27 27
29 28 27 26 24 23 21 19 17 16 15 14 12 10 10 10 11 12 12 12 12 11 11 11 12 15 35 57 57 46 29 18 22 23 26 31 33 38 42 47 50 52 51 47 44 40 37 34 30 28 27 27
32 31 30 30 29 28 27 25 23 21 19 18 16 14 12 11 10 10 10 11 11 12 11 10 11 9 29 67 87 89 68 31 16 17 18 22 23 26 29 32 37 42 46 47 47 44 40 38 36 33 30 28
35 34 33 32 31 30 30 29 28 27 25 23 21 20 17 16 13 11 10 10 10 11 11 11 11 12 23 56 82 96 96 56 19 14 14 17 18 19 22 23 26 29 34 39 42 44 45 43 39 37 34 32
39 37 35 34 33 31 31 30 30 29 28 27 26 25 23 22 19 17 14 11 11 9 11 11 11 13 11 39 75 85 90 66 26 12 11 13 14 14 18 18 20 22 24 29 32 37 42 43 41 39 37 35
45 42 39 37 35 33 32 31 30 29 28 28 27 27 26 26 24 23 21 17 15 11 11 10 10 13 7 35 80 84 79 64 33 17 10 10 12 11 14 14 14 16 17 20 23 27 32 36 38 38 38 36
54 51 48 45 42 38 36 33 32 30 29 28 27 27 26 26 26 25 25 22 21 17 14 13 10 11 9 27 57 61 61 56 42 33 18 8 10 9 10 11 11 12 13 14 16 19 22 25 29 32 35 35
67 63 59 55 52 48 45 41 38 35 32 31 28 28 26 25 25 24 25 24 24 22 20 18 15 13 11 14 23 27 34 39 40 41 28 12 8 9 9 9 10 10 10 11 12 13 15 17 20 23 26 29
86 78 72 67 63 60 57 53 49 45 41 37 33 31 29 27 26 24 24 23 23 23 23 21 19 18 16 14 14 14 16 22 26 31 29 18 8 8 8 8 8 8 9 9 10 10 11 12 14 15 18 20
98 94 88 81 75 70 67 65 61 57 53 48 44 39 36 33 30 27 25 24 23 22 22 22 22 21 20 18 17 15 13 14 15 16 19 17 10 8 8 7 8 7 8 7 8 9 9 10 10 11 12 14
102 101 99 94 88 82 76 73 71 68 64 60 56 51 47 42 38 34 30 27 25 23 22 21 21 21 21 21 20 19 17 16 15 13 13 13 12 11 9 8 8 8 8 7 7 7 7 8 9 9 10 10
103 102 102 100 98 94 88 82 78 75 73 70 67 63 58 54 49 44 39 34 30 26 24 23 22 21 20 20 20 20 20 19 19 18 16 15 15 14 13 12 10 9 8 8 8 7 7 7 7 8 8 9
102 102 102 101 101 100 98 94 89 85 82 79 76 73 69 65 60 55 49 44 38 33 29 26 24 23 21 20 20 19 20 20 19 19 19 18 18 17 17 16 14 12 10 11 10 9 9 8 7 7 7 7
100 100 100 101 101 101 100 100 99 97 94 90 87 83 79 75 71 66 62 55 49 43 37 32 28 25 24 22 21 20 19 19 19 19 19 19 19 18 18 18 17 16 14 13 12 11 11 10 9 8 7 7
100 100 100 100 100 100 100 100 101 101 101 100 98 95 90 85 81 76 72 67 62 55 47 41 34 30 27 25 23 22 21 20 19 18 18 18 18 18 18 18 18 17 17 16 14 13 12 12 12 11 10 9
100 100 100 100 99 99 99 100 100 100 101 101 101 99 96 92 89 86 82 77 72 67 60 53 45 37 32 29 27 25 23 22 21 19 18 18 17 17 17 17 17 17 17 17 16 15 15 14 14 13 13 12
100 100 100 100 100 99 99 99 100 101 101 101 100 100 98 96 93 92 90 87 82 76 71 65 58 49 41 35 31 28 26 25 23 22 20 19 19 18 17 17 17 17 17 17 17 16 16 16 15 15 14 14
97 98 97 98 99 99 99 99 99 100 100 100 100 100 100 99 97 95 94 94 93 89 82 76 70 62 53 44 38 33 30 28 26 25 24 22 21 20 19 18 18 17 17 17 17 17 16 16 16 16 15 15
86 91 92 93 94 96 98 98 98 99 100 100 100 100 100 100 99 98 96 97 98 98 95 88 81 73 64 55 48 41 36 32 30 28 26 25 24 23 22 21 20 19 19 18 18 17 17 17 16 16 16 15
81 83 87 89 91 92 95 96 96 97 99 100 100 100 100 100 100 100 99 99 98 100 100 98 94 86 76 66 57 50 44 39 35 32 30 28 27 25 25 24 23 23 22 21 20 19 19 18 17 17 16 16
78 79 80 83 86 90 93 95 94 93 95 98 100 100 100 100 99 100 100 100 99 98 99 99 98 96 90 79 67 57 51 47 42 39 35 32 31 29 27 26 26 25 24 23 22 22 21 20 19 18 18 17
54 65 72 76 79 82 87 92 93 90 90 95 98 99 101 101 99 100 100 100 100 100 99 97 95 95 95 91 82 68 57 52 48 45 42 39 36 34 32 30 29 27 26 26 25 24 23 22 21 20 19 19
19 32 46 59 70 75 78 82 87 88 87 89 93 93 95 98 99 99 100 99 100 100 100 99 97 94 92 92 93 85 71 60 53 50 47 45 42 40 38 36 35 33 31 29 28 26 25 24 23 22 21 20
6 8 14 26 43 57 67 73 78 81 81 81 83 83 85 90 92 94 96 97 99 99 98 99 100 98 95 91 91 94 88 76 65 57 52 49 47 46 44 43 41 39 37 35 33 31 29 27 26 24 24 22
19 12 8 7 12 23 37 52 64 72 76 76 74 72 73 77 83 86 88 91 93 95 96 97 98 99 100 96 92 93 94 89 79 70 62 56 52 50 48 48 47 45 43 42 40 38 36 33 31 29 28 26
42 34 27 19 11 7 9 18 31 46 59 67 70 69 66 65 69 74 78 83 87 91 93 94 93 96 99 100 97 94 95 95 90 84 77 68 62 57 53 52 50 49 48 47 45 44 42 40 38 36 33 31

ECMWFFLT2_500_rhum_039.txt.gz
RH
19 18 21 21 19 19 18 15 18 34 57 78 92 99 97 91 88 90 95 97 98 100 100 100 99 100 100 100 100 100 100 99 99 100 99 99 100 100 100 101 99 96 93 93 96 98 100 101 98 94 90 87
31 26 25 27 26 23 22 22 20 18 22 34 55 75 84 84 78 76 79 82 86 90 95 99 99 99 99 100 100 99 101 100 99 100 100 99 101 101 100 101 98 94 93 92 91 94 97 99 100 98 93 89
49 42 38 37 38 36 31 28 28 32 31 26 31 45 60 72 77 76 75 73 71 74 80 87 90 92 94 95 97 97 97 98 99 100 100 100 101 101 99 99 99 97 94 92 90 91 93 97 98 98 96 90
68 62 56 55 56 56 55 51 48 51 54 50 45 43 46 54 63 72 78 75 67 62 62 67 70 72 77 82 85 89 91 93 94 97 98 100 101 100 100 97 98 100 98 95 91 88 89 93 94 94 94 92
80 79 72 68 71 72 73 74 73 71 70 71 65 51 46 49 51 56 66 68 62 54 49 51 54 55 58 61 65 71 78 83 85 88 92 97 99 99 100 99 98 99 100 99 95 90 87 88 92 91 90 89
87 88 84 78 77 79 82 84 85 85 82 81 75 60 53 58 60 53 49 48 46 44 43 44 47 48 48 48 50 54 59 67 72 75 79 86 92 94 97 99 100 100 100 100 99 96 92 88 89 90 89 85
92 95 93 88 83 81 82 86 89 89 86 82 80 72 64 64 65 58 46 38 34 35 37 41 43 45 45 44 44 46 49 53 58 62 66 71 77 82 87 92 95 98 100 99 100 100 98 95 92 89 88 86
91 99 98 96 92 87 83 83 86 89 90 86 82 78 75 70 66 60 51 43 38 33 31 33 37 40 41 41 42 43 45 46 49 53 56 60 62 64 69 75 79 85 91 95 98 100 100 99 97 93 90 88
94 101 100 99 98 97 93 87 84 84 86 87 84 80 80 79 73 64 55 48 42 37 32 29 30 33 34 36 38 40 42 43 46 48 50 51 51 56 58 60 68 73 77 83 88 92 97 99 98 95 93 91
98 102 101 100 100 100 101 98 93 87 82 80 78 75 76 80 77 69 61 53 46 41 36 32 29 29 30 31 33 35 38 39 43 46 47 45 47 65 71 70 80 83 78 78 80 81 84 92 95 94 92 93
95 100 101 101 101 100 100 102 102 97 89 80 72 68 67 70 72 68 63 57 50 45 40 37 32 29 29 29 29 30 32 33 37 40 44 50 57 70 76 81 93 94 86 78 76 77 77 79 86 90 91 92
93 99 100 100 100 101 102 103 103 100 96 89 80 71 66 64 63 62 60 57 52 48 43 39 34 30 28 28 27 27 28 28 31 33 36 49 65 66 62 74 88 90 89 80 71 71 73 73 75 79 84 88
88 98 102 101 100 99 100 100 99 98 96 94 89 82 75 69 64 59 56 54 52 48 44 40 35 31 27 25 25 25 25 25 26 28 28 33 47 54 55 65 77 84 90 88 78 68 64 64 65 67 70 77
70 87 96 100 102 100 97 93 92 93 93 92 90 87 82 76 72 66 60 55 52 49 45 41 37 33 29 25 24 23 23 23 23 24 25 24 27 35 44 56 67 78 91 95 89 73 61 53 50 53 56 59
47 67 81 90 97 101 101 95 88 87 87 88 88 89 87 82 77 72 68 63 58 54 49 45 40 36 32 29 25 23 21 21 22 21 20 21 21 23 31 48 64 73 85 95 93 78 66 62 51 45 45 46
26 44 63 78 87 94 99 100 96 89 85 83 84 87 88 88 84 77 73 69 65 60 55 51 46 42 37 34 30 26 23 21 20 20 19 17 18 19 20 36 59 72 80 85 88 84 80 85 81 64 49 42
14 21 37 59 77 88 95 98 99 98 94 88 83 83 85 88 89 86 82 76 71 66 61 57 52 48 43 40 36 32 28 25 22 20 20 18 16 17 14 19 35 56 75 77 75 79 81 92 99 94 80 58
10 12 17 29 49 70 87 96 99 99 101 99 94 89 85 85 86 88 89 87 83 75 68 63 58 53 48 44 41 38 34 30 28 23 21 19 17 16 14 14 15 25 48 60 58 61 73 91 98 98 100 87
13 11 11 13 19 35 57 77 90 95 97 99 101 99 95 91 87 86 87 90 92 89 82 73 66 59 53 49 44 41 39 36 33 30 26 23 20 17 14 14 14 12 19 29 34 44 69 92 98 96 99 101
23 18 14 11 10 13 24 40 60 78 88 92 95 98 100 100 97 91 87 87 89 91 92 88 81 71 62 55 49 44 41 39 38 36 33 29 25 22 18 15 14 14 12 14 17 34 68 90 96 99 98 98
28 28 25 19 14 11 11 15 26 44 63 77 85 89 93 98 100 98 93 91 88 86 87 90 91 87 78 67 58 51 45 41 38 37 37 34 31 26 24 21 17 16 14 14 12 20 49 76 88 99 105 101
27 30 32 30 25 18 13 10 10 16 29 47 65 77 84 87 91 94 95 93 90 88 84 83 86 89 90 84 73 63 54 48 42 38 36 35 36 32 29 26 23 21 17 16 14 12 21 41 58 76 92 93
29 30 32 33 34 30 23 16 11 9 12 21 36 53 68 75 79 84 89 90 88 87 85 82 82 82 86 89 88 81 70 61 52 45 39 35 35 34 33 30 27 26 23 20 17 15 13 17 26 37 61 82
27 31 33 34 37 36 33 27 20 14 10 11 16 27 42 57 68 73 78 83 84 83 82 81 81 81 82 82 86 88 86 79 68 58 50 42 37 33 33 32 31 28 26 26 22 20 16 14 17 18 50 92
21 27 33 36 38 37 37 35 31 26 18 13 10 13 20 32 46 58 67 73 77 79 80 80 78 78 80 81 82 82 86 87 83 75 65 56 47 40 35 32 31 30 28 28 25 26 22 18 16 10 48 100
14 19 26 33 37 36 37 38 38 36 31 24 16 11 10 14 22 34 48 60 68 72 74 76 77 76 75 76 79 80 80 81 84 85 80 73 63 53 46 37 33 30 29 29 26 28 25 25 22 8 44 99
13 14 18 25 33 37 37 39 40 40 39 37 31 23 15 11 10 14 23 35 48 59 65 70 73 76 75 72 72 75 78 79 79 82 84 84 78 70 61 51 44 36 31 30 28 29 26 26 27 16 47 98
15 15 15 17 25 34 39 40 40 39 39 39 37 35 31 24 17 12 10 13 22 34 46 57 64 69 74 74 72 70 73 78 80 79 79 82 83 81 77 68 60 51 41 35 29 29 28 27 28 23 40 81
15 16 16 15 18 27 37 40 39 38 39 41 41 40 40 39 34 26 18 12 9 12 19 31 45 56 65 71 74 72 69 72 77 79 78 78 79 82 83 80 75 67 58 49 38 31 29 27 29 27 29 55
14 15 16 16 17 24 35 40 41 40 40 42 43 42 41 41 41 38 32 26 19 13 10 11 18 30 44 57 67 72 71 70 72 75 77 77 77 77 79 81 82 81 74 65 56 44 36 30 28 28 28 42
16 18 20 21 21 25 33 39 44 46 45 42 41 42 41 40 40 40 39 37 33 27 20 14 9 10 18 31 46 59 68 73 75 74 73 75 77 77 76 76 78 83 85 80 72 62 52 41 34 30 28 31

ECMWFFLT2_500_rhum_042.txt.gz
RH
17 18 21 22 21 22 17 24 45 67 86 89 82 74 87 102 98 100 101 99 101 99 99 99 99 100 101 100 100 99 99 100 100 99 98 96 97 100 100 100 101 101 100 100 99 99 100 101 100 100 100 100
14 17 20 25 27 30 28 26 32 53 86 99 94 80 78 94 97 97 101 99 99 100 100 100 100 101 100 100 100 100 100 100 101 101 100 98 99 100 100 100 100 100 100 100 99 98 97 98 100 100 100 100
9 13 17 23 29 34 37 40 43 50 70 90 100 86 69 84 96 93 98 102 100 99 100 100 100 101 100 100 101 100 100 100 100 100 101 99 100 101 101 101 100 100 100 100 99 100 97 93 95 100 101 100
6 9 12 18 24 33 39 45 53 63 74 81 85 79 68 79 96 97 90 93 102 101 99 101 100 100 100 100 101 100 100 100 100 100 100 100 100 100 101 100 100 101 100 100 100 100 99 93 89 94 100 101
4 6 7 12 17 25 36 44 51 62 79 89 87 79 69 70 85 98 86 74 90 102 100 100 100 100 100 100 100 101 100 99 100 101 100 100 100 100 100 100 100 101 99 100 100 100 100 98 93 91 96 101
3 5 5 7 11 16 25 36 47 56 65 79 91 94 86 76 73 85 85 67 69 90 99 100 101 100 100 100 100 100 100 100 100 100 100 100 100 100 100 100 100 101 99 99 100 100 100 100 99 95 96 100
2 3 5 5 6 10 16 23 34 47 58 65 78 92 97 94 85 81 86 78 67 74 88 96 99 99 100 100 100 101 100 100 101 100 101 101 100 101 100 100 100 101 101 100 100 100 100 100 100 100 98 98
4 3 3 5 5 6 10 15 21 29 43 56 67 81 91 96 98 94 91 92 86 80 83 91 95 96 96 96 99 102 101 100 100 100 101 101 101 100 99 101 101 101 101 100 100 100 100 101 100 100 99 98
5 4 3 3 5 6 8 11 17 21 26 38 51 66 79 86 93 99 99 97 98 96 93 91 94 96 93 92 95 97 100 101 100 101 101 101 102 101 101 101 102 102 101 100 101 100 100 100 100 100 100 100
7 5 4 3 3 5 8 12 19 25 25 26 34 47 63 76 82 90 97 100 100 100 99 96 95 99 99 97 95 93 95 98 100 101 100 101 102 102 101 97 96 97 97 99 102 101 100 99 100 100 99 100
8 7 5 4 4 4 7 13 23 36 41 36 31 35 45 61 74 80 86 92 98 100 100 97 94 97 101 101 99 96 92 92 96 98 101 102 99 96 94 89 88 90 90 93 96 99 100 98 98 99 99 100
9 9 8 5 4 5 6 11 20 36 54 60 54 47 44 47 58 70 77 82 89 94 99 99 96 96 100 101 101 101 94 90 90 92 98 100 94 87 84 82 81 84 88 88 89 90 91 89 90 94 95 98
9 11 11 9 6 4 5 9 16 27 46 66 75 74 69 60 53 54 64 74 81 86 93 98 99 99 100 101 101 101 96 92 90 90 92 91 85 78 75 75 74 76 81 84 87 89 88 83 81 85 86 87
9 11 12 13 11 7 5 6 12 22 36 54 72 84 89 87 76 63 56 62 72 80 86 91 97 99 100 100 101 100 96 94 95 94 92 85 77 69 65 67 69 70 72 78 88 96 98 89 78 76 76 78
9 9 12 14 14 12 9 5 7 16 31 47 62 78 92 98 96 89 77 66 65 72 79 82 87 92 97 100 101 101 98 96 97 98 96 88 76 65 60 59 62 66 68 75 85 97 102 93 87 85 83 89
10 10 10 12 15 16 15 11 6 8 20 38 54 68 84 97 101 102 99 89 78 73 74 78 80 81 86 92 96 98 98 97 96 95 95 90 79 68 61 56 56 59 64 74 81 92 93 83 93 101 96 101
11 11 10 11 13 16 18 17 14 8 7 18 36 53 69 84 94 99 102 102 97 87 79 78 80 79 78 79 83 87 89 90 89 88 87 83 76 69 62 56 54 52 57 68 72 77 76 73 92 104 99 100
11 11 11 10 11 13 16 19 20 17 11 6 13 30 51 67 78 87 95 100 102 100 93 85 81 82 81 77 74 74 76 78 78 77 76 73 69 64 60 56 52 48 50 59 69 73 67 73 93 100 100 101
10 10 9 9 10 10 13 17 20 22 21 15 7 9 25 48 65 74 82 90 96 101 102 98 90 84 83 82 78 73 69 68 68 67 66 65 63 59 55 52 48 47 46 48 65 84 82 83 97 98 99 103
9 8 8 8 8 9 10 14 19 23 25 25 20 11 9 22 44 63 74 81 86 93 98 101 99 92 85 83 83 81 75 70 66 62 59 57 57 55 51 47 44 42 44 41 47 80 100 96 99 101 97 100
9 8 7 7 7 8 9 11 15 20 26 29 29 25 16 10 17 36 57 73 81 87 91 95 100 99 93 87 85 85 83 80 74 67 61 55 51 50 48 44 41 37 40 40 34 59 98 102 97 101 100 98
9 8 7 6 6 7 8 10 12 16 23 29 32 33 30 20 12 12 25 46 65 80 86 88 92 98 99 94 88 85 85 85 83 77 69 61 53 48 46 42 39 35 33 37 32 39 77 100 100 100 100 101
9 8 7 7 7 7 8 9 11 14 19 26 32 36 36 32 24 16 11 16 32 54 73 83 87 91 97 99 94 89 86 86 87 85 79 71 63 53 48 43 39 36 30 32 31 29 46 71 94 104 98 99
8 8 8 7 8 8 9 10 11 12 16 23 30 35 39 38 34 28 19 11 11 21 41 63 79 85 90 95 97 95 90 87 86 88 87 81 74 63 55 48 43 39 33 30 29 28 29 33 68 104 99 97
8 8 7 7 8 10 11 12 13 13 13 19 27 32 36 40 40 36 30 21 13 9 14 29 51 70 80 85 91 95 95 92 88 87 89 89 85 76 65 56 50 45 39 34 29 27 27 20 38 71 76 83
8 9 8 7 8 10 12 13 14 15 14 15 24 31 34 38 41 39 35 29 21 14 9 9 19 38 58 71 79 86 91 95 95 91 89 90 91 88 79 68 59 52 45 41 36 29 28 23 21 32 44 64
8 9 9 8 8 10 12 13 14 15 14 15 22 29 33 37 39 40 38 35 29 23 16 10 8 12 26 45 62 75 82 88 93 96 94 91 91 91 90 83 72 62 53 46 43 37 32 29 22 20 31 55
8 9 10 9 9 10 12 13 14 16 15 16 23 28 33 36 39 41 41 39 36 32 27 20 14 9 8 16 33 52 69 78 84 90 96 97 94 90 90 92 88 78 66 54 47 44 38 36 31 23 21 33
8 9 10 10 9 11 14 15 15 18 20 21 25 28 32 36 38 39 41 41 40 37 35 30 24 18 11 7 10 22 40 58 70 78 86 93 97 94 89 90 93 92 85 70 56 48 44 40 38 33 26 20
9 10 10 11 11 12 17 20 20 21 25 27 29 30 31 35 37 38 38 39 39 39 38 36 33 29 24 16 9 7 13 26 44 59 71 80 88 93 92 89 90 94 96 89 74 59 50 45 41 38 35 29
8 10 11 11 12 13 16 22 26 27 29 31 32 32 32 33 35 37 38 37 37 37 36 36 36 35 33 29 22 15 9 8 15 29 46 61 73 82 88 89 88 91 95 96 92 79 64 53 47 42 39 37